• In Deutschland
  • Länderverzeichnis
  • Für 7 Tage
  • Wassertemperatur
  • Satellitenkarten
  • Wetterkarte
  • Widgets
  • user-avatar
    Anmelden

    Stündliche Wetter Würzburg

    Heute, 16 Juli, Montag

    Zeit Temperatur Niederschläge Wind Luftdruck Luftfeuchtigkeit
    00:00 +19°C° 0,5 mm 1 m/S 744 mmHg 86%
    01:00 +19°C° 0,5 mm 1 m/S 744 mmHg 87%
    02:00 +19°C° 0,1 mm 1 m/S 744 mmHg 88%
    03:00 +17°C° 0,1 mm 0 m/S 744 mmHg 88%
    04:00 +16°C° 0,1 mm 0 m/S 744 mmHg 89%
    05:00 +17°C° 0,2 mm 0 m/S 744 mmHg 87%
    06:00 +18°C° 0,2 mm 0 m/S 743 mmHg 86%
    07:00 +21°C° 0,2 mm 1 m/S 743 mmHg 84%
    08:00 +22°C° 1,2 mm 1 m/S 743 mmHg 79%
    09:00 +24°C° 1,2 mm 1 m/S 743 mmHg 74%
    10:00 +25°C° 1,2 mm 1 m/S 743 mmHg 69%
    11:00 +26°C° 0,7 mm 1 m/S 743 mmHg 64%
    12:00 +27°C° 0,7 mm 1 m/S 742 mmHg 60%
    13:00 +27°C° 0,7 mm 1 m/S 742 mmHg 55%
    14:00 +28°C° 0,1 mm 1 m/S 742 mmHg 54%
    15:00 +28°C° 0,1 mm 1 m/S 742 mmHg 53%
    16:00 +28°C° 0,1 mm 2 m/S 741 mmHg 52%
    17:00 +27°C° 0,5 mm 2 m/S 741 mmHg 60%
    18:00 +26°C° 0,5 mm 2 m/S 741 mmHg 67%
    19:00 +25°C° 0,5 mm 2 m/S 741 mmHg 74%
    20:00 +23°C° 0,2 mm 1 m/S 741 mmHg 78%
    21:00 +21°C° 0,2 mm 1 m/S 742 mmHg 82%
    22:00 +20°C° 0,2 mm 1 m/S 742 mmHg 86%
    23:00 +19°C° 0 mm 1 m/S 742 mmHg 87%

    Morgen, 17 Juli, Dienstag

    Zeit Temperatur Niederschläge Wind Luftdruck Luftfeuchtigkeit
    00:00 +19°C° 0 mm 1 m/S 742 mmHg 89%
    01:00 +18°C° 0 mm 1 m/S 742 mmHg 90%
    02:00 +18°C° 0 mm 1 m/S 743 mmHg 90%
    03:00 +15°C° 0 mm 0 m/S 743 mmHg 91%
    04:00 +15°C° 0 mm 0 m/S 743 mmHg 91%
    05:00 +16°C° 0 mm 0 m/S 743 mmHg 88%
    06:00 +18°C° 0 mm 0 m/S 743 mmHg 85%
    07:00 +21°C° 0 mm 1 m/S 743 mmHg 82%
    08:00 +23°C° 0,1 mm 1 m/S 744 mmHg 75%
    09:00 +24°C° 0,1 mm 1 m/S 744 mmHg 67%
    10:00 +26°C° 0,1 mm 2 m/S 744 mmHg 60%
    11:00 +27°C° 0 mm 2 m/S 744 mmHg 55%
    12:00 +28°C° 0 mm 2 m/S 744 mmHg 50%
    13:00 +29°C° 0 mm 3 m/S 744 mmHg 46%
    14:00 +29°C° 0 mm 3 m/S 743 mmHg 46%
    15:00 +29°C° 0 mm 3 m/S 743 mmHg 47%
    16:00 +29°C° 0 mm 3 m/S 743 mmHg 47%
    17:00 +28°C° 0 mm 2 m/S 743 mmHg 53%
    18:00 +27°C° 0 mm 2 m/S 743 mmHg 58%
    19:00 +26°C° 0 mm 1 m/S 743 mmHg 63%
    20:00 +25°C° 0,1 mm 1 m/S 744 mmHg 66%
    21:00 +23°C° 0,1 mm 1 m/S 744 mmHg 68%
    22:00 +22°C° 0,1 mm 1 m/S 744 mmHg 71%
    23:00 +21°C° 0,3 mm 1 m/S 744 mmHg 76%

    übermorgen, 18 Juli, Mittwoch

    Zeit Temperatur Niederschläge Wind Luftdruck Luftfeuchtigkeit
    00:00 +19°C° 0,3 mm 2 m/S 744 mmHg 81%
    01:00 +18°C° 0,3 mm 2 m/S 744 mmHg 85%
    02:00 +18°C° 0 mm 2 m/S 745 mmHg 87%
    03:00 +17°C° 0 mm 2 m/S 745 mmHg 89%
    04:00 +17°C° 0 mm 2 m/S 745 mmHg 91%
    05:00 +18°C° 0 mm 2 m/S 745 mmHg 89%
    06:00 +19°C° 0 mm 2 m/S 745 mmHg 87%
    07:00 +19°C° 0 mm 2 m/S 745 mmHg 85%
    08:00 +21°C° 0 mm 2 m/S 746 mmHg 77%
    09:00 +24°C° 0 mm 2 m/S 746 mmHg 70%
    10:00 +25°C° 0 mm 2 m/S 746 mmHg 62%
    11:00 +26°C° 0 mm 2 m/S 746 mmHg 58%
    12:00 +27°C° 0 mm 2 m/S 746 mmHg 54%
    13:00 +28°C° 0 mm 2 m/S 746 mmHg 51%
    14:00 +28°C° 0 mm 2 m/S 745 mmHg 49%
    15:00 +28°C° 0 mm 2 m/S 745 mmHg 47%
    16:00 +28°C° 0 mm 2 m/S 745 mmHg 46%
    17:00 +27°C° 0 mm 2 m/S 745 mmHg 51%
    18:00 +26°C° 0 mm 1 m/S 745 mmHg 56%
    19:00 +25°C° 0 mm 1 m/S 745 mmHg 61%
    20:00 +24°C° 0 mm 1 m/S 745 mmHg 65%
    21:00 +22°C° 0 mm 1 m/S 746 mmHg 68%
    22:00 +20°C° 0 mm 1 m/S 746 mmHg 72%
    23:00 +19°C° 0 mm 1 m/S 746 mmHg 74%

    19 Juli, Donnerstag

    Zeit Temperatur Niederschläge Wind Luftdruck Luftfeuchtigkeit
    00:00 +19°C° 0 mm 1 m/S 746 mmHg 77%
    01:00 +18°C° 0 mm 1 m/S 746 mmHg 80%
    02:00 +16°C° 0 mm 1 m/S 746 mmHg 82%
    03:00 +16°C° 0 mm 1 m/S 746 mmHg 83%
    04:00 +16°C° 0 mm 1 m/S 746 mmHg 85%
    05:00 +18°C° 0 mm 1 m/S 746 mmHg 82%
    06:00 +19°C° 0 mm 1 m/S 746 mmHg 78%
    07:00 +20°C° 0 mm 1 m/S 746 mmHg 75%
    08:00 +21°C° 0 mm 2 m/S 746 mmHg 68%
    09:00 +24°C° 0 mm 2 m/S 746 mmHg 62%
    10:00 +26°C° 0 mm 2 m/S 746 mmHg 56%
    11:00 +27°C° 0 mm 2 m/S 746 mmHg 52%
    12:00 +28°C° 0 mm 1 m/S 745 mmHg 47%
    13:00 +29°C° 0 mm 1 m/S 745 mmHg 43%
    14:00 +29°C° 0 mm 1 m/S 745 mmHg 43%
    15:00 +29°C° 0 mm 1 m/S 745 mmHg 42%
    16:00 +29°C° 0 mm 1 m/S 744 mmHg 42%
    17:00 +28°C° 0 mm 1 m/S 744 mmHg 48%
    18:00 +27°C° 0 mm 1 m/S 744 mmHg 53%
    19:00 +26°C° 0 mm 1 m/S 744 mmHg 59%
    20:00 +25°C° 0 mm 2 m/S 744 mmHg 61%
    21:00 +23°C° 0 mm 2 m/S 744 mmHg 63%
    22:00 +21°C° 0 mm 2 m/S 744 mmHg 65%
    23:00 +20°C° 0 mm 2 m/S 744 mmHg 67%

    20 Juli, Freitag

    Zeit Temperatur Niederschläge Wind Luftdruck Luftfeuchtigkeit
    00:00 +19°C° 0 mm 2 m/S 743 mmHg 69%
    01:00 +18°C° 0 mm 3 m/S 743 mmHg 72%
    02:00 +18°C° 0,1 mm 2 m/S 743 mmHg 72%
    03:00 +18°C° 0,1 mm 2 m/S 743 mmHg 73%
    04:00 +18°C° 0,1 mm 2 m/S 743 mmHg 74%
    05:00 +18°C° 0,1 mm 2 m/S 743 mmHg 74%
    06:00 +19°C° 0,1 mm 2 m/S 743 mmHg 75%
    07:00 +20°C° 0,1 mm 1 m/S 743 mmHg 76%
    08:00 +21°C° 0,7 mm 1 m/S 742 mmHg 80%
    09:00 +21°C° 0,7 mm 1 m/S 742 mmHg 83%
    10:00 +21°C° 0,7 mm 1 m/S 742 mmHg 87%
    11:00 +21°C° 0,2 mm 2 m/S 742 mmHg 81%
    12:00 +24°C° 0,2 mm 2 m/S 742 mmHg 76%
    13:00 +25°C° 0,2 mm 2 m/S 741 mmHg 71%
    14:00 +26°C° 0 mm 2 m/S 741 mmHg 67%
    15:00 +27°C° 0 mm 2 m/S 741 mmHg 64%
    16:00 +28°C° 0 mm 2 m/S 740 mmHg 60%
    17:00 +27°C° 1,1 mm 2 m/S 740 mmHg 67%
    18:00 +26°C° 1,1 mm 1 m/S 740 mmHg 74%
    19:00 +24°C° 1,1 mm 1 m/S 740 mmHg 81%
    20:00 +23°C° 0,8 mm 1 m/S 740 mmHg 84%
    21:00 +22°C° 0,8 mm 1 m/S 740 mmHg 87%
    22:00 +21°C° 0,8 mm 1 m/S 740 mmHg 89%
    23:00 +21°C° 0,2 mm 1 m/S 740 mmHg 90%

    21 Juli, Samstag

    Zeit Temperatur Niederschläge Wind Luftdruck Luftfeuchtigkeit
    00:00 +20°C° 0,2 mm 1 m/S 740 mmHg 91%
    01:00 +20°C° 0,2 mm 1 m/S 739 mmHg 92%
    02:00 +20°C° 0,2 mm 1 m/S 739 mmHg 93%
    03:00 +19°C° 0,2 mm 1 m/S 739 mmHg 94%
    04:00 +18°C° 0,2 mm 2 m/S 739 mmHg 94%
    05:00 +19°C° 0,4 mm 2 m/S 739 mmHg 94%
    06:00 +19°C° 0,4 mm 3 m/S 739 mmHg 93%
    07:00 +20°C° 0,4 mm 3 m/S 739 mmHg 92%
    08:00 +20°C° 0,1 mm 3 m/S 740 mmHg 88%
    09:00 +21°C° 0,1 mm 4 m/S 740 mmHg 84%
    10:00 +22°C° 0,1 mm 4 m/S 740 mmHg 81%
    11:00 +23°C° 0,6 mm 4 m/S 740 mmHg 79%
    12:00 +23°C° 0,6 mm 5 m/S 740 mmHg 77%
    13:00 +25°C° 0,6 mm 5 m/S 740 mmHg 75%
    14:00 +25°C° 0,6 mm 5 m/S 739 mmHg 73%
    15:00 +25°C° 0,6 mm 4 m/S 739 mmHg 71%
    16:00 +25°C° 0,6 mm 4 m/S 739 mmHg 69%
    17:00 +23°C° 0,2 mm 4 m/S 739 mmHg 71%
    18:00 +24°C° 0,2 mm 3 m/S 739 mmHg 74%
    19:00 +23°C° 0,2 mm 2 m/S 740 mmHg 77%
    20:00 +21°C° 0 mm 2 m/S 740 mmHg 79%
    21:00 +19°C° 0 mm 2 m/S 740 mmHg 81%
    22:00 +18°C° 0 mm 2 m/S 741 mmHg 84%
    23:00 +18°C° 0 mm 2 m/S 741 mmHg 85%
    Mehr zeigen